C/2016 A1 ( PanSTARRS )

Japanese version
Home page
Updated on November 10, 2019

---------------------------------------------------------------------

* Profile

Discovery Date January 1, 2016
Magnitude 19.3 mag
Discoverer Pan-STARRS 1 telescope (Haleakala)

* Pictures

* Orbital Elements

Epoch 2017 Nov. 23.0 TT = JDT 2458080.5
T 2017 Nov. 23.37304 TT                                 MPCW
q   5.3277633            (2000.0)            P               Q
z  -0.0003728      Peri.   10.32040     -0.53513208     +0.51121080
 +/-0.0000003      Node   128.17453     +0.70123249     -0.17512602
e   1.0019864      Incl.  121.18572     +0.47106969     +0.84142403
From 1965 observations 2016 Jan. 1-2019 Apr. 14, mean residual 0".5.

* Finding Charts

* Magnitudes Graph

        m1 = 1.2 + 5 log d + 15.0 log r

---------------------------------------------------------------------

The orbital elements are published on M.P.E.C. 2019-J142.
The charts are made with StellaNavigator Ver.10 (AstroArts).
The magnitudes graphs are made with Comet for Windows.

---------------------------------------------------------------------

Copyright(C) Seiichi Yoshida (comet@aerith.net). All rights reserved.